Location: Barrio Las Umbrías
(40.4173°N, 4.8685°W)
Time: 12:44:25
(UTC+00:00)

Cosmos 1862 - Pass Details

Date: 17 August 2022
Orbit: 531 x 552 km, 82.5° (Epoch: 27 September)

Event Time Altitude Azimuth Distance (km) Brightness Sun altitude
Rises 20:16:02 0° 196° (SSW) 2,715 6.7 -11.6°
Reaches altitude 10° 20:18:13 10° 201° (SSW) 1,827 5.9 -12.0°
Maximum altitude 20:22:10 56° 280° (W) 664 4.1 -12.6°
Drops below altitude 10° 20:26:10 10° 359° (N) 1,843 6.4 -13.3°
Sets 20:28:23 0° 4° (N) 2,741 7.3 -13.6°
